CZ-3C DEB, 39343

Orbit data source: Space-Track

CZ-3C DEB, 39343 is space debris in HEO originally from a launch on Sun, 31 Oct 2010 UTC launched from the Xichang Space Center, China (XSC). Debris objects in space refer to the collection of defunct objects orbiting the Earth. Examples of debris include non-operational satellites, rocket bodies, and fragments generated from explosions, collisions, or faulty payload assembly.

Loading next visibility...
Identifier
39343, 2010-057H
Orbit
HEO
Country
Flag of CNCN / PRC
Related business
Manufacturer
CALT
Mission
Spacecraft
Bus & Motor
Unknown
Mass
Unknown
Launch date (UTC)
2010-10-31 (15 years ago)
Launch vehicle
Unknown
Launch site
Xichang Space Center, China (XSC)
Object type
Payload
Rocket body
Debris
Shape & HBR
Unknown shape, 0.1 m
Radar Cross Section
Medium (>0.1 m² and <1 m²)

Expand to show TLE details & history
Last TLE update: 5 days ago

TLE from 5 days ago
0 CZ-3C DEB
1 39343U 10057H   26041.22449404  .00000069  00000-0  62816-3 0  9998
2 39343  21.5427  72.3986 7117584 143.7406 296.9129  2.32912147104923
Epoch: 2026-02-10T05:23Z
TLE epoch observation values (Epoch: 2026-02-10T05:23:16.285Z)
Latitude
-0.00003°
Longitude
-148.68888°
Altitude
21,432.95 km
Speed
3.476 km/s
True Right ascension
04h 49m 44s
True Declination
0° 00' 00"
Sunlit
Object was in daylight at epoch
Visualization orbit readout
Latitude
Unknown
Longitude
Unknown
Altitude
Unknown
Speed
Unknown
Apparent Right ascension
Unknown
Apparent Declination
Unknown
Sunlit
N/A
Visualization observer readout
Local Sidereal Time
17:07:18
Azimuth
Unknown
Elevation
Unknown
Doppler factor
Unknown
Orbital elements
Apogee altitude
34,780.343 km
Perigee altitude
552.506 km
Semi-major axis
24,044.562 km
Eccentricity
0.71176
Inclination
21.5427°
RAAN
72.3986°
Arg. of periapsis
143.7406°
True anomaly
216.24702°
Mean anomaly
296.9129°
Eccentric anomaly
257.153°
Mean motion
0.58213 °/min
Orbital period
618.42 mins
BSTAR
0.00062816
Loading maneuver chart data...
Computing Atmospheric mass density...
Loading historical data...
Loading historical data...
Loading historical data...
Loading historical data...
Loading historical data...
Loading historical data...
Loading historical data...

Documentation

Showing up to 5 results
|